[[{"header":{"parameterUnit":"m.s-1","parameterCategory":1,"la1":30.2991,"la2":30.254,"lo1":-89.0895,"lo2":-89.0444,"dy":0.0017,"dx":0.0017,"nx":28,"ny":28,"refTime":"2023-08-17T03:00:00:Z","depth":0,"parameterNumber":2,"parameterNumberName":"U-component_of_WINDS"},"data":[0,0,0,0,0,0,0,0,0,0,0,0,0,0,0,0,0,0,0,0,0,0,0,0,0,0,0,0,0,0,0,0,0,0,0,0,0,0,0,0,0,0,0,0,0,0,0,0,0,0,0,0,0,0,0,0,0,0,1.691,1.691,0,1.6926,1.6927,1.6927,1.6896,1.6895,1.6894,1.6893,1.6909,1.6911,1.6912,0,0,0,0,0,0,0,0,0,0,0,0,0,1.685,1.6852,1.691,1.691,1.691,1.6926,1.6927,1.6927,1.6896,1.6895,1.6894,1.6893,1.6909,1.6911,1.6912,0,0,0,0,0,0,0,0,0,0,0,0,0,1.6873,1.6852,1.691,1.6897,1.6896,1.6926,1.6927,1.6927,1.6897,1.6895,1.6894,1.6892,1.6908,1.691,1.6912,1.6956,0,0,1.6919,1.692,0,0,0,0,0,0,0,0,1.6871,1.6875,1.6899,1.6898,1.6897,1.6908,1.6911,1.6936,1.6897,1.6897,1.6893,1.6891,1.691,1.6912,1.6918,1.6956,1.6957,1.6919,1.692,1.6921,1.6922,0,0,0,0,0,0,0,1.687,1.6874,1.6916,1.6899,1.6898,1.689,1.6891,1.6916,1.6912,1.6896,1.6894,1.6897,1.6909,1.6916,1.6918,1.6957,1.6919,1.6921,1.6922,1.6923,1.7028,1.703,0,0,0,0,0,0,1.687,1.6873,1.6916,1.6917,1.688,1.6892,1.6894,1.6906,1.6911,1.6911,1.6898,1.6895,1.6914,1.6916,1.6919,1.6967,1.6921,1.6923,1.6924,1.7027,1.7028,1.703,0,0,0,0,0,0,1.6869,1.6874,1.6915,1.6894,1.6899,1.6895,1.6909,1.6907,1.6914,1.6912,1.6911,1.6906,1.6912,1.6916,1.6946,1.6967,1.6924,1.6926,1.7025,1.7027,1.7029,1.7066,0,0,0,0,0,0,1.6867,1.6874,1.6891,1.6895,1.69,1.6943,1.691,1.6908,1.6918,1.6914,1.692,1.6919,1.6912,1.6943,1.6948,1.6969,1.6927,1.7023,1.7026,1.7029,1.7062,1.7069,1.7074,0,0,0,0,0,1.6865,1.6901,1.6892,1.6897,1.6921,1.6944,1.6947,1.6938,1.692,1.6936,1.6934,1.6919,1.6965,1.6946,1.6952,1.6974,1.7021,1.7025,1.7028,1.706,1.7068,1.7074,0,0,0,0,0,0,1.69,1.6901,1.6891,1.693,1.6937,1.6939,1.6959,1.6947,1.696,1.6956,1.6943,1.6945,1.6977,1.6979,1.6958,1.7014,1.699,1.6995,1.7012,1.7019,1.7025,1.7023,1.6929,0,0,0,0,0,1.6912,1.6931,1.6931,1.6965,1.6969,1.6964,1.6973,1.6965,1.6972,1.6975,1.6976,1.6983,1.6999,1.701,1.7024,1.7063,1.7062,1.7081,1.7087,1.7092,1.7095,1.7113,1.7121,1.7042,1.7042,1.7042,0,0,1.6938,1.6941,1.6953,1.6972,1.6977,1.6995,1.6967,1.6988,1.7001,1.6979,1.7006,1.7007,1.7014,1.7048,1.7063,1.7051,1.7117,1.7096,1.71,1.7101,1.7118,1.7125,1.7132,1.7044,1.7044,1.7043,0,0,1.6993,1.6998,1.7025,1.703,1.7037,1.7033,1.704,1.7043,1.7043,1.707,1.7053,1.7068,1.7096,1.7101,1.7107,1.7162,1.7147,1.7167,1.7198,1.7215,1.7221,1.7227,1.7244,1.725,1.7171,1.7171,1.7171,0,1.7023,1.7051,1.7041,1.7063,1.707,1.705,1.7076,1.7082,1.7094,1.7099,1.7085,1.7118,1.7121,1.7155,1.7168,1.7174,1.718,1.7166,1.7222,1.7227,1.7232,1.7248,1.7254,1.7173,1.7173,1.7173,1.7173,0,1.7086,1.7106,1.7127,1.7137,1.7147,1.7172,1.7164,1.7176,1.7167,1.7164,1.7191,1.7194,1.7208,1.7215,1.7207,1.7247,1.7239,1.7224,1.7198,1.7241,1.7256,1.7262,1.7177,1.7176,1.7175,1.7175,0,0,1.7163,1.7167,1.7175,1.7178,1.7184,1.7198,1.7221,1.7234,1.7242,1.7251,1.7268,1.7292,1.7277,1.7284,1.7276,1.7292,1.7332,1.7274,1.7274,1.7283,1.7373,1.7382,1.739,1.7323,1.7324,1.7325,1.7371,0,1.7216,1.7254,1.7245,1.7282,1.7298,1.7279,1.7298,1.7303,1.7301,1.7314,1.7311,1.7327,1.7308,1.7311,1.7326,1.7324,1.7349,1.7321,1.7337,1.7338,1.7333,1.7398,1.7409,1.7452,1.7377,1.7378,1.7379,0,1.7282,1.7291,1.733,1.7331,1.7337,1.7355,1.7365,1.7378,1.7383,1.738,1.7387,1.7375,1.7396,1.7372,1.7399,1.738,1.7386,1.7386,1.7387,1.7387,1.7359,1.7397,1.7466,1.7472,1.7388,1.7388,1.7387,0,1.7331,1.7354,1.7379,1.7383,1.7385,1.7398,1.7399,1.7402,1.741,1.7419,1.7423,1.7434,1.744,1.7449,1.744,1.7424,1.7468,1.7444,1.7464,1.7465,1.7473,1.7472,1.7542,1.7481,1.7481,1.7481,1.7481,0,1.7388,1.7412,1.7401,1.7416,1.7442,1.7431,1.7456,1.7455,1.7458,1.7472,1.7457,1.747,1.7459,1.7472,1.7465,1.7487,1.7491,1.7488,1.7485,1.7488,1.7488,1.749,1.7486,1.7483,1.7482,1.7482,1.7482,0,1.7447,1.744,1.7466,1.7465,1.7466,1.7484,1.7483,1.7497,1.7493,1.7511,1.7515,1.7509,1.7522,1.7515,1.753,1.7525,1.7553,1.7548,1.7551,1.7549,1.7569,1.7566,1.7641,1.7649,1.7585,1.7586,1.7586,0,1.7483,1.75,1.7501,1.7509,1.7511,1.7525,1.7532,1.7522,1.753,1.7535,1.7548,1.756,1.7569,1.7591,1.7588,1.7598,1.7591,1.7617,1.7593,1.7594,1.7589,1.7587,1.7587,1.7621,1.7622,1.7622,1.7623,0,1.7547,1.7542,1.7553,1.7562,1.7571,1.7578,1.7583,1.7591,1.758,1.759,1.7603,1.761,1.7624,1.7635,1.7644,1.7644,1.7631,1.7631,1.7635,1.7637,1.7637,1.7635,1.7562,1.7629,1.7628,1.7628,1.7627,1.7627,1.7593,1.7607,1.7609,1.7621,1.7624,1.7629,1.7641,1.7638,1.7649,1.7658,1.7652,1.7667,1.7669,1.7679,1.7682,1.7693,1.7682,1.769,1.7692,1.7693,1.7695,1.7637,1.7694,1.7694,1.7694,1.7694,1.7694,0,1.7654,1.7654,1.7665,1.7672,1.7681,1.7669,1.7674,1.7682,1.7695,1.7698,1.7707,1.7721,1.7732,1.7729,1.7738,1.7748,1.7742,1.775,1.7748,1.7748,1.7705,1.7698,1.7755,1.7755,1.7755,1.7755,1.7755,1.7754,1.7687,1.7708,1.7703,1.7725,1.7725,1.7739,1.7743,1.7747,1.7749,1.7765,1.7774,1.7772,1.7772,1.7781,1.779,1.7789,1.7792,1.7802,1.7799,1.7758,1.7751,1.7746,1.7739,1.7804,1.7804,1.7841,1.7841,1.7841]},{"header":{"parameterUnit":"m.s-1","parameterCategory":1,"la1":30.2991,"la2":30.254,"lo1":-89.0895,"lo2":-89.0444,"dy":0.0017,"dx":0.0017,"nx":28,"ny":28,"refTime":"2023-08-17T03:00:00:Z","depth":0,"parameterNumber":3,"parameterNumberName":"V-component_of_WINDS"},"data":[0,0,0,0,0,0,0,0,0,0,0,0,0,0,0,0,0,0,0,0,0,0,0,0,0,0,0,0,0,0,0,0,0,0,0,0,0,0,0,0,0,0,0,0,0,0,0,0,0,0,0,0,0,0,0,0,0,0,5.9193,5.9193,0,5.9152,5.9152,5.9151,5.9022,5.9019,5.9016,5.9014,5.8974,5.8975,5.8977,0,0,0,0,0,0,0,0,0,0,0,0,0,5.9161,5.9163,5.9193,5.9193,5.9192,5.9152,5.9152,5.9151,5.9023,5.9019,5.9016,5.9012,5.8973,5.8975,5.8977,0,0,0,0,0,0,0,0,0,0,0,0,0,5.9153,5.9163,5.9193,5.9123,5.9117,5.9152,5.9152,5.9151,5.9023,5.9019,5.9015,5.9011,5.8972,5.8975,5.8977,5.9078,0,0,5.8984,5.8986,0,0,0,0,0,0,0,0,5.9154,5.9155,5.9134,5.9128,5.9121,5.9088,5.9125,5.9127,5.9024,5.9059,5.9014,5.9009,5.9015,5.9014,5.9016,5.9076,5.9074,5.8985,5.8986,5.8987,5.8988,0,0,0,0,0,0,0,5.9155,5.9156,5.9177,5.9134,5.9126,5.9094,5.9088,5.9125,5.9062,5.9055,5.9046,5.9043,5.9011,5.9014,5.9014,5.9074,5.8985,5.8987,5.8988,5.8989,5.9213,5.9217,0,0,0,0,0,0,5.9165,5.9157,5.9178,5.9176,5.9127,5.9098,5.9092,5.9103,5.9061,5.905,5.9047,5.9037,5.9012,5.9011,5.9012,5.9125,5.8987,5.8989,5.8991,5.9208,5.9214,5.9218,0,0,0,0,0,0,5.9165,5.9168,5.918,5.9164,5.9163,5.9103,5.9117,5.9104,5.9107,5.9054,5.9042,5.9061,5.9008,5.9008,5.9062,5.9121,5.8991,5.8993,5.9203,5.921,5.9216,5.9353,0,0,0,0,0,0,5.9165,5.9169,5.9206,5.9166,5.9164,5.9231,5.9121,5.9107,5.9111,5.9098,5.9065,5.9055,5.9005,5.9059,5.9064,5.9122,5.8995,5.9197,5.9206,5.9214,5.9343,5.9364,5.9381,0,0,0,0,0,5.9164,5.9248,5.9209,5.9212,5.921,5.9234,5.9234,5.9174,5.9117,5.9153,5.9119,5.9056,5.9115,5.9065,5.907,5.913,5.9193,5.9203,5.9213,5.9334,5.936,5.9381,0,0,0,0,0,0,5.9298,5.9241,5.9198,5.9271,5.9258,5.9213,5.9257,5.9203,5.9207,5.9195,5.9121,5.9115,5.9178,5.916,5.9106,5.9225,5.9143,5.9155,5.9234,5.9257,5.9276,5.9278,5.8997,0,0,0,0,0,5.9336,5.9361,5.931,5.9379,5.9375,5.9318,5.9326,5.9281,5.9266,5.926,5.923,5.9218,5.9233,5.9244,5.9256,5.9341,5.933,5.9384,5.9404,5.942,5.943,5.9471,5.9493,5.9252,5.9251,5.9251,0,0,5.9415,5.9387,5.9407,5.9405,5.939,5.9417,5.9314,5.9347,5.9366,5.9265,5.9312,5.929,5.9272,5.9341,5.9369,5.9327,5.9494,5.9432,5.9446,5.9447,5.9483,5.9506,5.9527,5.9258,5.9257,5.9256,0,0,5.9572,5.9554,5.9608,5.9595,5.9573,5.9535,5.9548,5.9511,5.9491,5.9538,5.9462,5.9484,5.9513,5.9502,5.95,5.9652,5.9593,5.9658,5.9758,5.9799,5.9818,5.9834,5.9886,5.9906,5.9669,5.9669,5.967,0,5.9673,5.9709,5.9644,5.968,5.9681,5.9591,5.9645,5.9636,5.962,5.9622,5.9575,5.9608,5.9589,5.9653,5.969,5.9693,5.9705,5.966,5.982,5.9836,5.9851,5.9899,5.9919,5.9677,5.9676,5.9676,5.9675,0,5.9833,5.9859,5.9906,5.9891,5.9897,5.9943,5.9884,5.9899,5.9854,5.982,5.9868,5.9842,5.9846,5.9858,5.9815,5.9916,5.989,5.9834,5.975,5.9883,5.9927,5.9945,5.9688,5.9686,5.9683,5.9681,0,0,6.0072,6.0019,6.0037,6.0028,5.9997,6.0016,6.0058,6.006,6.0073,6.0066,6.0098,6.0124,6.007,6.0069,6.0024,6.006,6.0179,5.9998,5.9996,6.003,6.0286,6.0327,6.0349,6.0141,6.0144,6.0147,6.0286,0,6.0217,6.0284,6.0226,6.0303,6.0326,6.024,6.0276,6.0261,6.0231,6.0246,6.0213,6.0232,6.0161,6.0159,6.0192,6.0158,6.0229,6.0147,6.0168,6.017,6.0173,6.0373,6.0416,6.0549,6.0303,6.0306,6.0309,0,6.0396,6.0395,6.0474,6.0436,6.0443,6.0477,6.0473,6.0489,6.0471,6.0446,6.0444,6.0388,6.0426,6.0346,6.0397,6.0342,6.0348,6.0333,6.0337,6.0334,6.0246,6.0373,6.0591,6.061,6.0336,6.0333,6.0332,0,6.0559,6.0577,6.0626,6.0622,6.058,6.0604,6.0588,6.0565,6.057,6.0568,6.057,6.0573,6.0574,6.0578,6.0525,6.0472,6.0581,6.0498,6.0561,6.0562,6.0585,6.0584,6.0804,6.0594,6.0594,6.0594,6.0593,0,6.0726,6.0777,6.0698,6.0728,6.0783,6.0716,6.0772,6.0747,6.0728,6.0751,6.0679,6.0702,6.0632,6.0648,6.0607,6.0654,6.0656,6.0636,6.0624,6.0641,6.0643,6.0642,6.063,6.0599,6.0598,6.0597,6.0596,0,6.0916,6.0865,6.0912,6.0868,6.0859,6.0901,6.0863,6.0889,6.0854,6.0885,6.0888,6.0834,6.0849,6.0797,6.0805,6.0777,6.0845,6.0819,6.085,6.0841,6.0907,6.09,6.1131,6.1157,6.0934,6.0936,6.0938,0,6.1025,6.1062,6.1021,6.1031,6.1018,6.1036,6.104,6.0976,6.0983,6.0964,6.0992,6.1002,6.1005,6.1034,6.0995,6.1,6.0973,6.1053,6.0973,6.0988,6.0971,6.0968,6.097,6.1069,6.1072,6.1074,6.1076,0,6.1222,6.1195,6.1203,6.1202,6.1208,6.1205,6.1197,6.1209,6.1141,6.1153,6.1167,6.117,6.1176,6.1186,6.1183,6.1166,6.111,6.1102,6.1116,6.1133,6.1148,6.1138,6.0893,6.1096,6.1094,6.1093,6.1092,6.1091,6.1372,6.14,6.1376,6.1387,6.1374,6.1367,6.1388,6.1356,6.1366,6.1366,6.1328,6.135,6.1329,6.1319,6.1308,6.1324,6.1286,6.1308,6.1313,6.1319,6.1328,6.1148,6.1323,6.1323,6.1322,6.1322,6.1321,0,6.1563,6.1543,6.1554,6.1544,6.1552,6.1498,6.1486,6.1497,6.1516,6.1502,6.1506,6.1522,6.1531,6.1493,6.1497,6.1517,6.1491,6.152,6.1516,6.1513,6.1363,6.1349,6.154,6.154,6.154,6.154,6.154,6.154,6.1664,6.1707,6.1677,6.1714,6.1693,6.1712,6.171,6.1703,6.1691,6.1711,6.1718,6.1693,6.1669,6.167,6.1676,6.1664,6.1668,6.1705,6.1685,6.1545,6.1524,6.1503,6.1489,6.1707,6.1707,6.1833,6.1834,6.1835]}]]